Retour au catalogue

YAOGAN-33 03

ActifMilitaireSSO
NORAD 57797·PAYLOAD·🇨🇳 China

Lancé Sep 6, 2023 depuis Jiuquan Satellite Launch Center

Loading…

Prochains Passages (prochaines 24 heures)

TLE

FraisSource: Space-Track

Époque: Sep 14, 2026, 15:18 UTC

1 57797U 23136A   26257.63801865  .00000289  00000-0  71715-4 0  9993
2 57797  98.1923 180.7392 0006405 270.8308  89.2158 14.58789051160976

Suivez YAOGAN-33 03 en temps réel avec AllMySat

Download on the App Store